This demonstration page uses our WeatherBlox Daily Observations layout. Learn more.

Left ArrowRight Arrow

34.02893, -84.19858

Hourly Observations for November 7, 2022

Temp ( °F °C ) Dew Point ( °F °C ) Humidity (%) Winds ( mph kmh ) Pressure ( in mb ) Visibility ( mi km ) Precip ( " mm )
12:53 am 00:53 Clear 63 17.2 62 16.7 97 97 Calm 30.19 1023 8 13 0.00 0.00
1:28 am 01:28 Partly Cloudy 63 17.2 62 16.7 97 97 Calm 30.22 1023 7 11 0.00 0.00
1:37 am 01:37 Mostly Cloudy 65 18.3 64 17.8 97 97 Calm 30.22 1023 8 13 0.00 0.00
1:53 am 01:53 Cloudy 68 20 67 19.4 96 96 SSE 5 7 30.20 1023 8 13 0.00 0.00
2:49 am 02:49 Cloudy with Mist and Fog 66 19 66 19 100 100 Calm 30.22 1023 4 6 0.00 0.00
2:53 am 02:53 Cloudy with Mist and Fog 67 19.4 67 19.4 100 100 Calm 30.20 1023 4 6 0.00 0.00
3:32 am 03:32 Cloudy 67 19.4 66 18.9 97 97 SSE 3 6 30.21 1023 7 11 0.00 0.00
3:53 am 03:53 Cloudy 67 19.4 67 19.4 100 100 SSE 3 6 30.19 1023 7 11 0.00 0.00
4:38 am 04:38 Cloudy 68 20 66 18.9 93 93 Calm 30.21 1023 9 14 0.00 0.00
4:53 am 04:53 Cloudy 68 20 66 18.9 93 93 Calm 30.20 1023 9 14 0.00 0.00
5:34 am 05:34 Cloudy with Mist and Fog 67 19.4 66 18.9 97 97 Calm 30.23 1024 3 5 0.00 0.00
5:53 am 05:53 Cloudy 67 19.4 66 18.9 97 97 Calm 30.22 1023 7 11 0.00 0.00
6:53 am 06:53 Cloudy 68 20 66 18.9 93 93 Calm 30.24 1024 8 13 0.00 0.00
7:53 am 07:53 Cloudy 68 20 66 18.9 93 93 Calm 30.26 1025 7 11 0.00 0.00
8:53 am 08:53 Cloudy 70 21.1 67 19.4 90 90 NNW 3 6 30.28 1026 7 11 0.00 0.00
9:00 am 09:00 Cloudy 70 21.1 67 19.4 90 90 NNW 3 6 30.28 1025 7 11 0.00 0.00
9:53 am 09:53 Cloudy 71 21.7 67 19.4 87 87 VRB 5 7 30.28 1025 9 14 0.00 0.00
10:22 am 10:22 Cloudy 74 23.3 68 20 82 82 VRB 3 6 30.27 1025 10 16 0.00 0.00
10:31 am 10:31 Cloudy 76 24.4 68 20 77 77 VRB 3 6 30.27 1025 10 16 0.00 0.00
10:38 am 10:38 Cloudy 76 24.4 67 19.4 74 74 VRB 6 9 30.27 1025 10 16 0.00 0.00
10:53 am 10:53 Cloudy 73 22.8 66 18.9 79 79 NW 5 7 30.28 1026 10 16 0.00 0.00
11:00 am 11:00 Cloudy 74 23.3 66 18.9 76 76 N 5 7 30.28 1025 10 16 0.00 0.00
11:53 am 11:53 Cloudy 77 25 66 18.9 69 69 NNW 10 17 30.27 1025 10 16 0.00 0.00
12:32 pm 12:32 Partly Cloudy 76 24.4 66 18.9 71 71 NNW 6 9 30.25 1024 10 16 0.00 0.00
12:53 pm 12:53 Sunny 78 25.6 65 18.3 64 64 N 3 6 30.24 1024 10 16 0.00 0.00
1:53 pm 13:53 Mostly Sunny 80 26.7 65 18.3 60 60 VRB 3 6 30.21 1023 10 16 0.00 0.00
2:53 pm 14:53 Cloudy 81 27.2 64 17.8 57 57 NW 6 9 30.19 1022 10 16 0.00 0.00
3:53 pm 15:53 Mostly Cloudy 81 27.2 65 18.3 58 58 NNW 5 7 30.19 1022 10 16 0.00 0.00
4:53 pm 16:53 Sunny 78 25.6 62 16.7 58 58 NW 7 11 30.19 1022 10 16 0.00 0.00
5:53 pm 17:53 Mostly Clear 74 23.3 62 16.7 66 66 Calm 30.21 1023 10 16 0.00 0.00
6:53 pm 18:53 Clear 70 21.1 62 16.7 76 76 Calm 30.22 1024 10 16 0.00 0.00
7:53 pm 19:53 Cloudy 71 21.7 64 17.8 79 79 N 6 9 30.23 1024 10 16 0.00 0.00
8:53 pm 20:53 Mostly Clear 70 21.1 63 17.2 78 78 NNE 3 6 30.24 1024 10 16 0.00 0.00
9:53 pm 21:53 Clear 67 19.4 62 16.7 84 84 NNW 3 6 30.25 1024 10 16 0.00 0.00
10:53 pm 22:53 Clear 64 17.8 61 16.1 90 90 N 3 6 30.25 1024 10 16 0.00 0.00
11:53 pm 23:53 Clear 65 18.3 62 16.7 90 90 Calm 30.25 1024 10 16 0.00 0.00

Powered by AerisWeather